Location: *
(42.3377°N, 71.0868°W)
Time: 04:46:02
(UTC+00:00)

IRIDIUM 104 - Pass Details

Date: 09 April 2020
Orbit: 776 x 779 km, 86.4° (Epoch: 30 May)

Event Time Altitude Azimuth Distance (km) Brightness Sun altitude
Rises 23:40:49 0° 0° (N) 3,273 7.8 -4.6°
Reaches altitude 10° 23:43:13 10° 4° (N) 2,340 7.0 -5.0°
Maximum altitude 23:48:24 62° 85° (E) 877 4.4 -5.9°
Drops below altitude 10° 23:53:33 10° 166° (SSE) 2,321 6.5 -6.9°
Sets 23:55:55 0° 170° (S) 3,244 7.3 -7.3°
